Sheridan, IN

10:25 AM EST on January 24, 2017 (GMT -0500)
Indianapolis Terry

Weather History for KTYQ - August, 2014

Change the Weather History Date:

Tuesday, August 19, 2014

  Actual Average (KEYE) Record (KEYE)
Temperature  
Mean Temperature 73 °F -  
Max Temperature 85 °F 80 °F 91 °F (2010)
Min Temperature 62 °F 63 °F 58 °F (2012)
Cooling Degree Days 8    
Growing Degree Days 23 (Base 50)    
Moisture  
Dew Point 65 °F    
Average Humidity 78    
Maximum Humidity 91    
Minimum Humidity 56    
Precipitation  
Precipitation 0.28 in - - ()
Sea Level Pressure  
Sea Level Pressure 29.84 in    
Wind  
Wind Speed 3 mph (SW)    
Max Wind Speed 17 mph    
Max Gust Speed 22 mph    
Visibility 6 miles    
Events Fog , Rain , Thunderstorm    
Averages and records for this station are not official NWS values.
T = Trace of Precipitation, MM = Missing Value Source: NWS Daily Summary

Daily Weather History Graph

Daily Weather History Graph

Search for Another Location

Airport or City:

Trip Planner

Search our weather history database for the weather conditions in past years. The results will help you decide how hot, cold, wet, or windy it might be!

Date:

Astronomy

Aug. 19, 2014 Rise Set
Actual Time 7:00 AM EDT 8:36 PM EDT
Civil Twilight 6:31 AM EDT 9:04 PM EDT
Nautical Twilight 5:57 AM EDT 9:39 PM EDT
Astronomical Twilight 5:20 AM EDT 10:15 PM EDT
Moon 1:52 AM EDT (8/19) 4:32 PM EDT (8/19)
Length of Visible Light 14h 33m
Length of Day
13h 35m
Waning Crescent, 29% of the Moon is Illuminated
Aug 19
Waning Crescent
Aug 25
New
Sep 2
First Quarter
Sep 8
Full
Sep 15
Last Quarter

Hourly Weather History & Observations

Time (EDT) Temp. Heat Index Dew Point Humidity Pressure Visibility Wind Dir Wind Speed Gust Speed Precip Events Conditions
12:15 AM 67.5 °F - 64.4 °F 90% 29.86 in 1.2 mi Calm Calm - N/A   Mist
12:35 AM 66.7 °F - 63.7 °F 90% 29.86 in 1.0 mi Calm Calm - N/A   Mist
12:55 AM 65.8 °F - 62.8 °F 90% 29.86 in 0.5 mi Calm Calm - N/A Fog Fog
1:15 AM 66.2 °F - 63.3 °F 90% 29.86 in 1.5 mi Calm Calm - N/A   Mist
1:35 AM 64.9 °F - 61.9 °F 90% 29.86 in 0.8 mi Calm Calm - N/A   Mist
1:55 AM 65.5 °F - 62.6 °F 90% 29.85 in 0.5 mi Calm Calm - N/A Fog Fog
2:15 AM 64.4 °F - 61.5 °F 90% 29.84 in 2.0 mi Calm Calm - N/A   Clear
2:35 AM 64.0 °F - 61.2 °F 90% 29.83 in 0.5 mi Calm Calm - N/A Fog Fog
2:55 AM 64.6 °F - 61.7 °F 90% 29.83 in 3.0 mi Calm Calm - N/A   Clear
3:15 AM 64.9 °F - 62.1 °F 90% 29.83 in 2.5 mi Calm Calm - N/A   Clear
3:35 AM 64.6 °F - 61.5 °F 90% 29.83 in 3.0 mi Calm Calm - N/A   Clear
3:55 AM 63.7 °F - 60.8 °F 90% 29.84 in 1.8 mi Calm Calm - N/A   Mist
4:15 AM 63.5 °F - 60.4 °F 90% 29.83 in 0.2 mi Calm Calm - N/A Fog Fog
4:35 AM 63.3 °F - 60.4 °F 90% 29.83 in 0.2 mi Calm Calm - N/A Fog Fog
4:55 AM 63.3 °F - 60.4 °F 90% 29.84 in 0.5 mi Calm Calm - N/A Fog Fog
5:15 AM 63.0 °F - 60.3 °F 91% 29.84 in 0.2 mi Calm Calm - N/A Fog Fog
5:35 AM 63.1 °F - 60.4 °F 91% 29.84 in 2.5 mi Calm Calm - N/A   Mostly Cloudy
5:55 AM 62.6 °F - 59.9 °F 91% 29.84 in 0.2 mi Calm Calm - N/A Fog Fog
6:15 AM 62.4 °F - 59.7 °F 91% 29.85 in 0.2 mi Calm Calm - N/A Fog Fog
6:35 AM 62.8 °F - 60.1 °F 91% 29.86 in 2.5 mi Calm Calm - N/A   Scattered Clouds
6:55 AM 63.1 °F - 60.4 °F 91% 29.86 in 2.0 mi Calm Calm - N/A   Clear
7:15 AM 63.0 °F - 60.3 °F 91% 29.87 in 0.8 mi Calm Calm - N/A   Mist
7:35 AM 62.6 °F - 59.9 °F 91% 29.86 in 0.2 mi Calm Calm - N/A Fog Fog
7:55 AM 64.9 °F - 62.2 °F 91% 29.87 in 1.0 mi Calm Calm - N/A   Mist
8:15 AM 66.6 °F - 63.9 °F 91% 29.86 in 1.0 mi Calm Calm - N/A   Mist
8:35 AM 68.5 °F - 65.8 °F 91% 29.86 in 1.2 mi Calm Calm - N/A   Mist
8:55 AM 70.7 °F - 67.8 °F 91% 29.86 in 3.0 mi SW 4.6 mph - N/A   Clear
9:15 AM 72.1 °F - 69.3 °F 91% 29.86 in 4.0 mi SSW 5.8 mph - N/A   Clear
9:35 AM 73.9 °F - 70.0 °F 87% 29.86 in 5.0 mi SW 5.8 mph - N/A   Clear
9:55 AM 75.9 °F - 68.9 °F 79% 29.86 in 7.0 mi SW 6.9 mph - N/A   Clear
10:15 AM 77.2 °F - 68.9 °F 76% 29.86 in 7.0 mi SW 9.2 mph - N/A   Clear
10:35 AM 78.3 °F - 68.2 °F 71% 29.86 in 10.0 mi SW 9.2 mph - N/A   Clear
10:55 AM 78.8 °F - 67.8 °F 69% 29.86 in 10.0 mi SSW 5.8 mph - N/A   Clear
11:15 AM 79.7 °F - 67.6 °F 66% 29.86 in 10.0 mi SSW 8.1 mph - N/A   Scattered Clouds
11:35 AM 80.4 °F 82.8 °F 67.3 °F 64% 29.86 in 7.0 mi SW 8.1 mph - N/A   Scattered Clouds
11:55 AM 81.3 °F 84.0 °F 67.8 °F 63% 29.86 in 10.0 mi SSW 8.1 mph - N/A   Scattered Clouds
12:15 PM 82.0 °F 84.7 °F 67.3 °F 61% 29.86 in 10.0 mi SW 10.4 mph - N/A   Scattered Clouds
12:35 PM 80.8 °F 82.9 °F 66.4 °F 61% 29.86 in 10.0 mi WSW 12.7 mph - N/A   Scattered Clouds
12:55 PM 82.4 °F 85.0 °F 67.5 °F 60% 29.86 in 10.0 mi SW 11.5 mph - N/A   Scattered Clouds
1:15 PM 83.5 °F 86.7 °F 68.2 °F 60% 29.85 in 10.0 mi SW 10.4 mph - N/A   Scattered Clouds
1:35 PM 83.7 °F 86.2 °F 66.7 °F 57% 29.86 in 10.0 mi SW 15.0 mph 18.4 mph N/A   Scattered Clouds
1:55 PM 83.5 °F 86.0 °F 66.9 °F 57% 29.86 in 10.0 mi WSW 12.7 mph 17.3 mph N/A   Scattered Clouds
2:15 PM 82.9 °F 85.8 °F 67.6 °F 60% 29.86 in 10.0 mi WSW 10.4 mph - N/A   Mostly Cloudy
2:35 PM 83.5 °F 86.2 °F 67.1 °F 58% 29.85 in 10.0 mi WSW 10.4 mph - N/A   Mostly Cloudy
2:55 PM 83.7 °F 86.2 °F 66.7 °F 57% 29.84 in 10.0 mi SW 17.3 mph 20.7 mph N/A   Scattered Clouds
3:15 PM 84.4 °F 87.1 °F 67.1 °F 56% 29.83 in 10.0 mi WSW 13.8 mph 19.6 mph N/A   Scattered Clouds
3:35 PM 84.2 °F 86.8 °F 67.1 °F 56% 29.82 in 10.0 mi WSW 11.5 mph 17.3 mph N/A   Mostly Cloudy
3:55 PM 84.7 °F 88.2 °F 68.4 °F 58% 29.82 in 10.0 mi SW 12.7 mph - N/A   Mostly Cloudy
4:15 PM 83.1 °F 85.7 °F 66.9 °F 58% 29.82 in 10.0 mi SW 13.8 mph - N/A   Mostly Cloudy
4:35 PM 82.8 °F 85.5 °F 67.8 °F 60% 29.81 in 10.0 mi SW 6.9 mph - N/A   Scattered Clouds
4:55 PM 82.4 °F 85.0 °F 67.1 °F 60% 29.80 in 10.0 mi SW 5.8 mph - N/A   Clear
5:15 PM 82.6 °F 85.3 °F 67.6 °F 60% 29.79 in 10.0 mi Calm Calm - N/A   Clear
5:35 PM 84.2 °F 87.1 °F 67.5 °F 57% 29.80 in 10.0 mi SW 8.1 mph - N/A   Clear
5:55 PM 82.2 °F 84.6 °F 66.6 °F 59% 29.81 in 10.0 mi SW 8.1 mph - N/A   Scattered Clouds
6:35 PM 78.8 °F - 68.0 °F 69% 29.82 in 10.0 mi SSW 4.6 mph - N/A Rain Rain
6:55 PM 77.5 °F - 67.6 °F 71% 29.84 in 10.0 mi West 17.3 mph 21.9 mph N/A Rain , Thunderstorm Light Thunderstorms and Rain
7:15 PM 72.5 °F - 66.7 °F 82% 29.83 in 5.0 mi WSW 16.1 mph 20.7 mph 0.04 in Rain , Thunderstorm Thunderstorms and Rain
7:35 PM 72.0 °F - 64.4 °F 77% 29.81 in 10.0 mi South 5.8 mph - 0.07 in Rain , Thunderstorm Light Thunderstorms and Rain
7:55 PM 71.4 °F - 64.4 °F 78% 29.81 in 10.0 mi South 4.6 mph - 0.07 in Thunderstorm Clear
8:15 PM 71.2 °F - 64.9 °F 80% 29.81 in 10.0 mi South 3.5 mph - N/A   Clear
8:35 PM 71.2 °F - 65.5 °F 82% 29.82 in 10.0 mi Calm Calm - N/A Thunderstorm Clear
8:55 PM 70.9 °F - 66.2 °F 85% 29.81 in 10.0 mi SSW 4.6 mph - N/A   Clear
9:15 PM 71.1 °F - 66.4 °F 85% 29.81 in 10.0 mi South 3.5 mph - N/A   Clear
9:35 PM 71.1 °F - 66.9 °F 87% 29.81 in 10.0 mi South 3.5 mph - N/A Thunderstorm Clear
9:55 PM 71.4 °F - 67.1 °F 86% 29.83 in 10.0 mi Calm Calm - N/A Thunderstorm Scattered Clouds
10:55 PM 69.4 °F - 64.6 °F 84% 29.86 in 10.0 mi South 4.6 mph - 0.21 in Rain , Thunderstorm Light Thunderstorms and Rain
11:15 PM 69.8 °F - 65.7 °F 87% 29.87 in 10.0 mi SW 6.9 mph - N/A Rain , Thunderstorm Light Thunderstorms and Rain
11:35 PM 70.0 °F - 66.2 °F 88% 29.85 in 7.0 mi Calm Calm - N/A Thunderstorm Clear
11:55 PM 69.6 °F - 65.7 °F 87% 29.84 in 7.0 mi WSW 3.5 mph - N/A   Clear